Tracking 26442 objects as of 7-Dec-2022
HD Live streaming from Space Station
objects crossing your sky now

NOAA 16 DEB

Track NOAA 16 DEB now!
10-day predictions


NORAD ID: 42338
Int'l Code: 2000-055QE
Perigee: 750.5 km
Apogee: 821.7 km
Inclination: 98.7 °
Period: 100.4 minutes
Semi major axis: 7157 km
RCS: Unknown
Launch date: September 21, 2000
Source: United States (US)
Launch site: AIR FORCE WESTERN TEST RANGE (AFWTR)

Note: This is SATELLITE DEBRIS
aabbcc
Your satellite tracking list
Your tracking list is empty




NASA's NSSDC Master Catalog

Two Line Element Set (TLE):
1 42338U 00055QE  22340.55614070  .00008627  00000-0  30701-2 0  9995
2 42338  98.7458  83.6375 0049758 192.5662 167.4285 14.33836279352941
Source of the keplerian elements: AFSPC